Regional Weather Roundup
Issued by NWS Charleston, SC

Current Version | Previous Version | Text Only | Print | Product List | Glossary Off
Versions: 1 2 3 4 5 6 7 8 9 10 11 12 13 14 15 16 17 18 19 20 21 22 23 24 25 26 27 28 29 30 31 32 33 34 35 36 37 38 39 40 41 42 43 44 45 46 47 48 49 50

000
ASUS42 KCHS 231625
RWRCHS

REGIONAL WEATHER ROUNDUP
NATIONAL WEATHER SERVICE CHARLESTON SC
1200 PM EDT TUE SEP 23 2014

NOTE: "FAIR" INDICATES FEW OR NO CLOUDS BELOW 12,000 FEET WITH NO
SIGNIFICANT WEATHER AND/OR OBSTRUCTIONS TO VISIBILITY.

NOT ALL STATIONS ARE QUALITY CONTROLLED BY THE NATIONAL
WEATHER SERVICE. USE DATA WITH CAUTION...ESPECIALLY
DEWPOINT OBSERVATIONS.

SCZ027-030-031-034>040-042>050-231700-
...SOUTH CAROLINA...

CITY           SKY/WX    TMP DP  RH WIND       PRES   REMARKS
N CHARLESTON   LGT RAIN  69  66  90 NE9       30.16R
WATERFRONT PRK NOT AVBL
FORT JOHNSON   NOT AVBL
MOUNT PLEASANT RAIN      70  68  94 NE6       30.16R
JOHNS ISLAND   LGT RAIN  70  70 100 CALM      30.16R
PINOPOLIS        N/A     70  66  88 NE18      30.09S
MONCKS CORNER  LGT RAIN  68  68 100 NE7G16    30.17F
SUMMERVILLE    LGT RAIN  68  68 100 N6        30.18S
BEAUFORT MCAS  LGT RAIN  70  66  87 NE12      30.14F
BEAUFORT ARPT  CLOUDY    70  68  94 N10       30.14S
HILTON HEAD IS CLOUDY    70  64  83 N9        30.15S
GEORGETOWN     NOT AVBL
WALTERBORO     CLOUDY    68 N/A N/A NE7       30.18S
ORANGEBURG     CLOUDY    64  61  90 NE13G20   30.21R
BARNWELL       CLOUDY    70  63  78 NE14      30.21R
AIKEN          PTSUNNY   72  63  73 NE13      30.24F
MANNING        CLOUDY    66  66 100 N8        30.21S
KINGSTREE      NOT AVBL
COLUMBIA       CLOUDY    70  58  65 NE13G22   30.23S
SUMTER         CLOUDY    66  59  77 NE17      30.22R
FLORENCE       CLOUDY    63  58  83 NE13      30.25S
MYRTLE BEACH   LGT RAIN  66  63  88 NE17      30.18F
N MYRTLE BEACH LGT RAIN  66  62  87 N13G25    30.19S

$$

GAZ063-065-086>088-099>101-113>116-118-119-134-136>141-150-231700-
...GEORGIA...

CITY           SKY/WX    TMP DP  RH WIND       PRES   REMARKS
SAVANNAH ARPT  PTSUNNY   74  65  73 NE10      30.14R
HUNTER AAF     PTSUNNY   73  67  81 NE9       30.12R
FORT STEWART   MOSUNNY   77  65  67 E9        30.12R
STATESBORO     NOT AVBL
SYLVANIA       CLOUDY    71  68  91 NE7       30.19R
CLAXTON        FAIR      75  68  78 NE9       30.15S
THOMSON        PTSUNNY   76  66  71 E12       30.25S
AUGUSTA-BUSH   MOSUNNY   75  60  59 E13       30.19S
AUGUSTA-DANIEL SUNNY     75  59  57 NE15      30.21S
SWAINSBORO     FAIR      75  66  73 NE10      30.18S
VIDALIA        MOSUNNY   73  64  73 N12       30.16S
ALMA           PTSUNNY   76  60  57 NE8       30.12F
WAYCROSS       SUNNY     82  66  58 NE10G17   30.11S
JESUP          PTSUNNY   81  68  65 E13G20    30.12S
BRUNSWICK      PTSUNNY   77  68  73 NE9G17    30.11S
SAINT SIMONS   CLOUDY    74  67  78 NE17G23   30.10S

$$

SCZ027-028-034-036>038-045-046-048>050-GAZ119-141-231700-
...LAKE AND SUPPLEMENTAL COASTAL OBSERVATIONS...

STATION/POSITION TIME  TEMP    WIND        PRES    WAVE   SWELL
                       AIR SEA DIR/SP/G            HT/PER HT/PER/DIR
                 (UTC) (F)     (DEG/KT/KT) (MB)    (FT/S) (FT/S/D)
UPR LAKE MARION  NOT AVBL
WINYAH BAY       1600   67      30/ 11     1021.0S
LAKE MURRAY      1500   65      40/  5/  9 1023.4R
ACE BASIN NERRS  1600   67      20/  3     1021.0S
FORT PULASKI     1600   70      20/ 14/ 17 1020.7R
SAPELO ISLAND    1600   73      70/ 11     1020.0S

$$

ANZ835-935-AMZ111-154-330-350-352-354-374-450-454-472-231700-
...C-MAN AND BUOY OBSERVATIONS...

STATION/POSITION TIME  TEMP    WIND        PRES    WAVE   SWELL
                       AIR SEA DIR/SP/G            HT/PER HT/PER/DIR
                 (UTC) (F)     (DEG/KT/KT) (MB)    (FT/S) (FT/S/D)
FOLLY BEACH CMAN 1600   68     350/ 12/ 15 1021.4R
BUOY 41004       1600   76 81   60/ 21/ 23 1018.9F   5/ 6   2/10
BUOY 41008       1600   72 82   70/ 19/ 23 1019.2R   5/ 6
5E ST. MARYS GA  1600      82                N/A     4/ 5
FRYING PAN BUOY  NOT AVBL
BUOY 41025       1600   74      30/ 21/ 25 1022.1R   6/ 6
CAPE LOOKOUT NC  1600   69      20/ 17/ 20 1022.6R
BUOY 41002       1516   75 81   70/ 16/ 19 1020.0F   3/ 8   3/110/ 8
BUOY 41010       1600   81 85  140/ 12/ 14 1017.6S   2/ 8   2/ 90/ 8
BUOY 41012       NOT AVBL
ST AUGUSTINE FL  1600   76     350/ 13/ 15 1018.4R
CAPERS NEARSHORE 1500   76      90/ 17/ 21   N/A
FRIPP NEARSHORE  NOT AVBL


$$


USA.gov is the U.S. government's official web portal to all federal, state and local government web resources and services.